Skip Page Navigation
NASA JPL Caltech
NASA Logo - Jet Propulsion Laboratory + View the NASA Portal
+ Center for Near-Earth Object Studies
JPL Home Earth Solar System Stars & Galaxies Technology
JPL Solar System Dynamics
BODIES ORBITS EPHEMERIDES TOOLS PHYSICAL DATA DISCOVERY FAQ SITE MAP
JPL Small-Body Database Browser
Search: [ help ]  
214337 (2005 JV93)
Classification: Main-belt Asteroid          SPK-ID: 2214337
Ephemeris | Orbit Diagram | Orbital Elements | Mission Design | Physical Parameters | Discovery Circumstances | Close-Approach Data ]

[ show orbit diagram ]
Orbital Elements at Epoch 2459000.5 (2020-May-31.0) TDB
Reference: JPL 13 (heliocentric ecliptic J2000)
 Element Value Uncertainty (1-sigma)   Units 
e .2879014368485277 6.3872e-08  
a 2.592771854784521 2.2822e-08 au
q 1.846309112371635 1.748e-07 au
i 3.963959654966276 4.5273e-06 deg
node 242.6306419312206 0.00010069 deg
peri 294.1172646197152 0.00010127 deg
M 255.9645643491269 1.4553e-05 deg
tp 2459441.180335843384
(2021-Aug-14.68033584)
6.6563e-05 TDB
period 1524.912352325858
4.17
2.0134e-05
5.512e-08
d
yr
n .2360791421558842 3.117e-09 deg/d
Q 3.339234597197407 2.9392e-08 au
  Orbit Determination Parameters
   # obs. used (total)      222  
   data-arc span      5829 days (15.96 yr)  
   first obs. used      2003-11-16  
   last obs. used      2019-11-01  
   planetary ephem.      DE431  
   SB-pert. ephem.      SB431-N16  
   condition code      0  
   norm. resid. RMS      .60643  
   source      ORB  
   producer      Otto Matic  
   solution date      2019-Dec-04 16:57:40  

Additional Information
 Earth MOID = .854741 au 
 Jupiter MOID = 1.65863 au 
 T_jup = 3.356 
[ show covariance matrix ]

Ephemeris | Orbit Diagram | Orbital Elements | Mission Design | Physical Parameters | Discovery Circumstances | Close-Approach Data ]

Physical Parameter Table
Parameter Symbol Value Units Sigma Reference Notes
absolute magnitude H 16.7   n/a MPO454539  

214337 (2005 JV93)          Discovered 2005-May-11 by NEAT at Palomar
Reference: 20090509/Numbers.arcLast Updated: 2009-05-11

[ show close-approach data ]
Alternate Designations
 2005 JV93 = 2007 TN227 
Ephemeris | Orbit Diagram | Orbital Elements | Mission Design | Physical Parameters | Discovery Circumstances | Close-Approach Data ]
ABOUT SSD CREDITS/AWARDS PRIVACY/COPYRIGHT GLOSSARY LINKS
FirstGov 2020-Jul-16 18:23 UT
(server date/time)  
NASA Home Page
Site Manager:   Ryan S. Park
Webmaster  Alan B. Chamberlin